| time (UTC) | temp C | wind direction | speed KPH | gust KPH | rain 1hr cm | rain 24hr cm | rain mn cm | humidity % | barometer mb |
| 20260508013054 | 13 | 63 | 0.0 | 0.0 | 0.00 | 0.00 | 0.00 | 83 | 1013.1 |
| 20260508011603 | 13 | 85 | 0.0 | 1.6 | 0.00 | 0.00 | 0.00 | 83 | 1013.1 |
| 20260508010105 | 13 | 193 | 0.0 | 1.6 | 0.00 | 0.00 | 0.00 | 81 | 1013.3 |
| 20260508004559 | 13 | 267 | 0.0 | 1.6 | 0.00 | 0.00 | 0.00 | 82 | 1013.2 |
| 20260508003106 | 13 | 317 | 0.0 | 1.6 | 0.00 | 0.00 | 0.00 | 81 | 1013.2 |
| 20260508001550 | 13 | 305 | 0.0 | 1.6 | 0.00 | 0.00 | 0.00 | 81 | 1013.3 |
| 20260508000051 | 13 | 312 | 0.0 | 1.6 | 0.00 | 0.00 | 0.00 | 80 | 1013.2 |
| 20260507234549 | 13 | 328 | 0.0 | 3.2 | 0.00 | 0.00 | 0.00 | 80 | 1013.4 |
| 20260507233048 | 13 | 330 | 0.0 | 3.2 | 0.00 | 0.00 | 0.00 | 79 | 1013.5 |
| 20260507231559 | 13 | 278 | 0.0 | 1.6 | 0.00 | 0.00 | 0.00 | 77 | 1013.5 |
| 20260507230044 | 13 | 312 | 0.0 | 1.6 | 0.00 | 0.00 | 0.00 | 78 | 1013.4 |
| 20260507224556 | 13 | 309 | 0.0 | 1.6 | 0.00 | 0.00 | 0.00 | 78 | 1013.4 |
| 20260507223040 | 13 | 281 | 0.0 | 6.4 | 0.00 | 0.00 | 0.00 | 77 | 1013.3 |
| 20260507221539 | 13 | 20 | 0.0 | 4.8 | 0.00 | 0.00 | 0.00 | 79 | 1013.2 |
| 20260507220036 | 13 | 295 | 0.0 | 1.6 | 0.00 | 0.00 | 0.00 | 81 | 1013.3 |
| 20260507214535 | 13 | 283 | 0.0 | 1.6 | 0.00 | 0.00 | 0.00 | 80 | 1013.2 |
| 20260507213035 | 13 | 319 | 0.0 | 6.4 | 0.00 | 0.00 | 0.00 | 80 | 1013.1 |
| 20260507211537 | 13 | 320 | 1.6 | 6.4 | 0.00 | 0.00 | 0.00 | 79 | 1013.2 |
| 20260507210036 | 13 | 335 | 1.6 | 3.2 | 0.00 | 0.00 | 0.00 | 80 | 1013.2 |
| 20260507204536 | 13 | 321 | 0.0 | 4.8 | 0.00 | 0.00 | 0.00 | 80 | 1013.0 |
| 20260507203032 | 13 | 330 | 0.0 | 3.2 | 0.00 | 0.00 | 0.00 | 79 | 1012.8 |
| 20260507201534 | 14 | 293 | 0.0 | 1.6 | 0.00 | 0.00 | 0.00 | 78 | 1012.6 |
| 20260507200037 | 14 | 304 | 1.6 | 4.8 | 0.00 | 0.00 | 0.00 | 76 | 1012.5 |
| 20260507194531 | 15 | 87 | 0.0 | 3.2 | 0.00 | 0.00 | 0.00 | 75 | 1012.4 |
| 20260507193032 | 15 | 280 | 0.0 | 6.4 | 0.00 | 0.00 | 0.00 | 76 | 1012.1 |
| 20260507191531 | 15 | 321 | 0.0 | 3.2 | 0.00 | 0.00 | 0.00 | 77 | 1011.7 |
| 20260507190037 | 15 | 314 | 0.0 | 4.8 | 0.00 | 0.00 | 0.00 | 77 | 1011.8 |
| 20260507184536 | 15 | 319 | 0.0 | 3.2 | 0.00 | 0.00 | 0.00 | 76 | 1011.6 |
| 20260507183027 | 16 | 288 | 0.0 | 3.2 | 0.00 | 0.00 | 0.00 | 74 | 1011.5 |
| 20260507181528 | 16 | 320 | 0.0 | 1.6 | 0.00 | 0.00 | 0.00 | 68 | 1011.4 |
| 20260507180029 | 17 | 269 | 0.0 | 1.6 | 0.00 | 0.00 | 0.00 | 69 | 1011.3 |
| 20260507174530 | 17 | 257 | 1.6 | 4.8 | 0.00 | 0.00 | 0.00 | 67 | 1011.3 |
| 20260507173031 | 17 | 250 | 0.0 | 3.2 | 0.00 | 0.00 | 0.00 | 66 | 1011.2 |
| 20260507171524 | 18 | 216 | 1.6 | 4.8 | 0.00 | 0.00 | 0.00 | 65 | 1011.1 |
| 20260507170024 | 18 | 284 | 0.0 | 3.2 | 0.00 | 0.00 | 0.00 | 62 | 1011.2 |
| 20260507164524 | 19 | 233 | 0.0 | 3.2 | 0.00 | 0.00 | 0.00 | 56 | 1011.0 |
| 20260507163023 | 20 | 250 | 0.0 | 8.0 | 0.00 | 0.00 | 0.00 | 53 | 1011.0 |
| 20260507161523 | 21 | 204 | 3.2 | 8.0 | 0.00 | 0.00 | 0.00 | 50 | 1011.1 |
| 20260507160025 | 21 | 268 | 0.0 | 4.8 | 0.00 | 0.00 | 0.00 | 51 | 1011.0 |
| 20260507154522 | 21 | 207 | 0.0 | 6.4 | 0.00 | 0.00 | 0.00 | 53 | 1011.0 |
| 20260507153020 | 21 | 212 | 0.0 | 8.0 | 0.00 | 0.00 | 0.00 | 52 | 1010.9 |
| 20260507151519 | 21 | 252 | 0.0 | 8.0 | 0.00 | 0.00 | 0.00 | 54 | 1010.8 |
| 20260507150020 | 21 | 229 | 1.6 | 8.0 | 0.00 | 0.00 | 0.00 | 55 | 1011.0 |
| 20260507144516 | 20 | 145 | 3.2 | 8.0 | 0.00 | 0.00 | 0.00 | 55 | 1011.0 |
| 20260507143015 | 20 | 22 | 0.0 | 8.0 | 0.00 | 0.00 | 0.00 | 53 | 1011.2 |
| 20260507141513 | 20 | 116 | 0.0 | 9.7 | 0.00 | 0.00 | 0.00 | 55 | 1011.3 |
| 20260507140013 | 20 | 282 | 3.2 | 9.7 | 0.00 | 0.00 | 0.00 | 55 | 1011.3 |
| 20260507134518 | 20 | 117 | 1.6 | 8.0 | 0.00 | 0.00 | 0.00 | 55 | 1011.4 |
| 20260507133010 | 20 | 268 | 3.2 | 9.7 | 0.00 | 0.00 | 0.00 | 55 | 1011.5 |
| 20260507131509 | 20 | 141 | 3.2 | 9.7 | 0.00 | 0.00 | 0.00 | 57 | 1011.6 |
| 20260507130009 | 20 | 178 | 4.8 | 11.3 | 0.00 | 0.00 | 0.00 | 58 | 1011.7 |
| 20260507124506 | 20 | 143 | 3.2 | 14.5 | 0.00 | 0.00 | 0.00 | 59 | 1011.8 |
| 20260507123005 | 20 | 316 | 1.6 | 9.7 | 0.00 | 0.00 | 0.00 | 58 | 1011.9 |
| 20260507121505 | 19 | 235 | 4.8 | 12.9 | 0.00 | 0.00 | 0.00 | 60 | 1011.9 |
| 20260507120005 | 19 | 173 | 4.8 | 11.3 | 0.00 | 0.00 | 0.00 | 59 | 1012.1 |
| 20260507114503 | 19 | 65 | 1.6 | 14.5 | 0.00 | 0.00 | 0.00 | 59 | 1012.1 |
| 20260507113001 | 19 | 188 | 1.6 | 4.8 | 0.00 | 0.00 | 0.00 | 60 | 1012.4 |
| 20260507111558 | 18 | 261 | 3.2 | 12.9 | 0.00 | 0.00 | 0.00 | 62 | 1012.4 |
| 20260507110055 | 17 | 127 | 1.6 | 8.0 | 0.00 | 0.00 | 0.00 | 63 | 1012.7 |
| 20260507104555 | 17 | 117 | 1.6 | 12.9 | 0.00 | 0.00 | 0.00 | 66 | 1012.8 |
| 20260507103056 | 17 | 150 | 3.2 | 12.9 | 0.00 | 0.00 | 0.00 | 68 | 1012.9 |
| 20260507101554 | 17 | 168 | 3.2 | 12.9 | 0.00 | 0.00 | 0.00 | 67 | 1013.0 |
| 20260507100056 | 17 | 91 | 3.2 | 11.3 | 0.00 | 0.00 | 0.00 | 64 | 1013.0 |
| 20260507094554 | 17 | 117 | 3.2 | 9.7 | 0.00 | 0.00 | 0.00 | 69 | 1012.9 |
| 20260507093047 | 17 | 129 | 4.8 | 11.3 | 0.00 | 0.00 | 0.00 | 68 | 1012.8 |
| 20260507091548 | 16 | 81 | 0.0 | 4.8 | 0.00 | 0.00 | 0.00 | 68 | 1012.8 |
| 20260507090044 | 16 | 97 | 3.2 | 9.7 | 0.00 | 0.00 | 0.00 | 73 | 1012.9 |
| 20260507084548 | 16 | 219 | 3.2 | 8.0 | 0.00 | 0.00 | 0.00 | 75 | 1012.8 |
| 20260507083048 | 16 | 127 | 3.2 | 9.7 | 0.00 | 0.00 | 0.00 | 74 | 1012.8 |
| 20260507081540 | 15 | 211 | 3.2 | 8.0 | 0.00 | 0.00 | 0.00 | 75 | 1012.9 |
| 20260507080053 | 15 | 162 | 0.0 | 4.8 | 0.00 | 0.00 | 0.00 | 77 | 1012.8 |
| 20260507074544 | 14 | 120 | 0.0 | 4.8 | 0.00 | 0.00 | 0.00 | 78 | 1012.8 |
| 20260507073039 | 15 | 120 | 1.6 | 3.2 | 0.00 | 0.00 | 0.00 | 76 | 1012.9 |
| 20260507071553 | 15 | 79 | 0.0 | 4.8 | 0.00 | 0.00 | 0.00 | 76 | 1012.7 |
| 20260507070036 | 14 | 58 | 0.0 | 0.0 | 0.00 | 0.00 | 0.00 | 82 | 1012.7 |
| 20260507064530 | 12 | 336 | 0.0 | 1.6 | 0.00 | 0.30 | 0.00 | 83 | 1012.6 |
| 20260507063032 | 12 | 313 | 0.0 | 1.6 | 0.00 | 0.30 | 0.00 | 84 | 1012.5 |
| 20260507061528 | 12 | 323 | 0.0 | 3.2 | 0.00 | 0.30 | 0.00 | 82 | 1012.4 |
| 20260507060026 | 12 | 281 | 0.0 | 3.2 | 0.00 | 0.30 | 0.00 | 83 | 1012.3 |
| 20260507054523 | 11 | 314 | 0.0 | 1.6 | 0.00 | 0.43 | 0.00 | 86 | 1012.2 |
| 20260507053024 | 10 | 340 | 0.0 | 4.8 | 0.00 | 0.43 | 0.00 | 88 | 1012.1 |
| 20260507051520 | 10 | 290 | 0.0 | 6.4 | 0.00 | 0.43 | 0.00 | 90 | 1011.9 |
| 20260507050019 | 9 | 319 | 0.0 | 4.8 | 0.00 | 0.64 | 0.00 | 92 | 1011.8 |
| 20260507044516 | 8 | 307 | 0.0 | 1.6 | 0.00 | 0.64 | 0.00 | 94 | 1011.4 |
| 20260507043014 | 8 | 292 | 0.0 | 4.8 | 0.00 | 0.64 | 0.00 | 94 | 1011.3 |
| 20260507041512 | 8 | 296 | 0.0 | 1.6 | 0.00 | 0.64 | 0.00 | 95 | 1011.1 |
| 20260507040013 | 8 | 314 | 0.0 | 0.0 | 0.00 | 0.71 | 0.00 | 94 | 1011.0 |
| 20260507034507 | 8 | 314 | 0.0 | 0.0 | 0.00 | 0.71 | 0.00 | 94 | 1010.9 |
| 20260507033007 | 8 | 314 | 0.0 | 0.0 | 0.00 | 0.71 | 0.00 | 94 | 1010.7 |
| 20260507031505 | 9 | 312 | 0.0 | 1.6 | 0.00 | 0.71 | 0.00 | 93 | 1010.8 |
| 20260507030005 | 9 | 322 | 0.0 | 4.8 | 0.00 | 0.71 | 0.00 | 93 | 1010.8 |
| 20260507024502 | 9 | 312 | 0.0 | 3.2 | 0.00 | 0.71 | 0.00 | 92 | 1010.8 |
| 20260507023103 | 10 | 323 | 0.0 | 3.2 | 0.00 | 0.71 | 0.00 | 92 | 1010.9 |
| 20260507021602 | 10 | 320 | 0.0 | 3.2 | 0.00 | 0.71 | 0.00 | 92 | 1010.8 |
| 20260507020104 | 10 | 308 | 0.0 | 1.6 | 0.00 | 0.71 | 0.00 | 91 | 1010.8 |
| 20260507014607 | 10 | 300 | 0.0 | 1.6 | 0.00 | 0.71 | 0.00 | 90 | 1010.8 |